STARLINK-2395, 47814

Orbit data source: Space-Track

STARLINK-2395, 47814 is a payload satellite owned by SpaceX/Seattle (US) in LEO that was launched on Thu, 11 Mar 2021 UTC via an FALCON 9 launch vehicle from the Air Force Eastern Test Range (AFETR). Payload-class satellites include a variety of spacecraft equipped with specific instruments for various scientific and technological missions. These include communications satellites like Starlink; space stations such as the ISS; scientific satellites like the Hubble; Earth observation satellites from companies like Planet Labs, Umbra, and HawkEye 360; GPS; miniature CubeSats for education and research; and military/defense satellites.

Loading next visibility...
Identifier
47814, 2021-018AD
Orbit
LEO
Country
Flag of USUS
Related business
Manufacturer
SpaceX/Seattle
Mission
Operational Commercial Communications
Bus & Motor
STARLINK, Unknown motor
Mass
260 kg wet, ~248 kg dry
Launch date (UTC)
2021-03-11 (5 years ago)
Launch vehicle
FALCON 9
Launch site
Air Force Eastern Test Range (AFETR)
Object type
Payload
Rocket body
Debris
Shape & HBR
Box + 1 Pan, 10.1 m
Radar Cross Section
13.562 m², Large (>1 m²)

Expand to show TLE details & history
Last TLE update: 2 days ago

TLE from 2 days ago
0 STARLINK-2395
1 47814U 21018AD  26171.19656118  .00001146  00000-0  48708-4 0  9993
2 47814  53.1601 125.9360 0001300  91.3837 268.7314 15.31693420292494
Epoch: 2026-06-20T04:43Z
TLE epoch observation values (Epoch: 2026-06-20T04:43:02.885Z)
Latitude
0.00001°
Longitude
146.75933°
Altitude
471.68 km
Speed
7.631 km/s
True Right ascension
08h 23m 44s
True Declination
0° 00' 00"
Sunlit
Object was in daylight at epoch
Visualization orbit readout
Latitude
Unknown
Longitude
Unknown
Altitude
Unknown
Speed
Unknown
Apparent Right ascension
Unknown
Apparent Declination
Unknown
Sunlit
N/A
Visualization observer readout
Local Sidereal Time
21:47:24
Azimuth
Unknown
Elevation
Unknown
Doppler factor
Unknown
Orbital elements
Apogee altitude
471.907 km
Perigee altitude
470.126 km
Semi-major axis
6,849.153 km
Eccentricity
0.00013
Inclination
53.1601°
RAAN
125.936°
Arg. of periapsis
91.3837°
True anomaly
268.71651°
Mean anomaly
268.7314°
Eccentric anomaly
268.72395°
Mean motion
3.82902 °/min
Orbital period
94.02 mins
BSTAR
0.000048708
Loading maneuver chart data...
Computing Atmospheric mass density...

Documentation

Showing up to 5 results
|